| time (UTC) | temp C | wind direction | speed KPH | gust KPH | rain 1hr cm | rain 24hr cm | rain mn cm | humidity % | barometer mb |
| 20260508081537 | 16 | 318 | 3.2 | 6.4 | 0.76 | 0.76 | 0.76 | 87 | 993.7 |
| 20260508080031 | 16 | 139 | 3.2 | 8.0 | 0.76 | 0.76 | 0.76 | 87 | 992.7 |
| 20260508074527 | 16 | 283 | 1.6 | 4.8 | 0.76 | 0.76 | 0.76 | 86 | 993.7 |
| 20260508073025 | 16 | 35 | 0.0 | 3.2 | 0.51 | 0.51 | 0.51 | 82 | 994.1 |
| 20260508071522 | 17 | 292 | 0.0 | 3.2 | 0.00 | 0.00 | 0.00 | 73 | 993.9 |
| 20260508070026 | 17 | 121 | 0.0 | 3.2 | 0.00 | 0.00 | 0.00 | 73 | 993.9 |
| 20260508064519 | 17 | 121 | 0.0 | 1.6 | 0.00 | 0.00 | 0.00 | 73 | 994.0 |
| 20260508063016 | 17 | 121 | 0.0 | 1.6 | 0.00 | 0.00 | 0.00 | 73 | 994.1 |
| 20260508061516 | 17 | 121 | 0.0 | 0.0 | 0.00 | 0.00 | 0.00 | 75 | 994.5 |
| 20260508060012 | 17 | 121 | 0.0 | 0.0 | 0.00 | 0.00 | 0.00 | 75 | 994.3 |
| 20260508054511 | 17 | 121 | 0.0 | 0.0 | 0.00 | 0.00 | 0.00 | 74 | 994.2 |
| 20260508053014 | 17 | 121 | 0.0 | 0.0 | 0.00 | 0.00 | 0.00 | 74 | 994.2 |
| 20260508051508 | 17 | 121 | 0.0 | 0.0 | 0.00 | 0.00 | 0.00 | 73 | 994.3 |
| 20260508050007 | 17 | 121 | 0.0 | 0.0 | 0.00 | 0.00 | 0.00 | 72 | 994.3 |
| 20260508044506 | 17 | 121 | 0.0 | 0.0 | 0.00 | 0.00 | 0.00 | 72 | 994.3 |
| 20260508043005 | 17 | 121 | 0.0 | 0.0 | 0.00 | 0.00 | 0.00 | 71 | 994.2 |
| 20260508041506 | 17 | 121 | 0.0 | 0.0 | 0.00 | 0.00 | 0.00 | 71 | 994.3 |
| 20260508040003 | 17 | 121 | 0.0 | 0.0 | 0.00 | 0.00 | 0.00 | 71 | 994.3 |
| 20260508034504 | 17 | 121 | 0.0 | 0.0 | 0.00 | 0.00 | 0.00 | 69 | 994.1 |
| 20260508033002 | 17 | 121 | 0.0 | 0.0 | 0.00 | 0.00 | 0.00 | 68 | 994.0 |
| 20260508031504 | 18 | 121 | 0.0 | 1.6 | 0.00 | 0.00 | 0.00 | 67 | 994.0 |
| 20260508030002 | 18 | 121 | 0.0 | 0.0 | 0.00 | 0.00 | 0.00 | 65 | 993.9 |
| 20260508024603 | 18 | 121 | 0.0 | 0.0 | 0.00 | 0.00 | 0.00 | 63 | 993.7 |
| 20260508023100 | 18 | 121 | 0.0 | 1.6 | 0.00 | 0.00 | 0.00 | 61 | 993.5 |
| 20260508021600 | 18 | 121 | 0.0 | 3.2 | 0.00 | 0.00 | 0.00 | 62 | 993.6 |
| 20260508020059 | 19 | 101 | 0.0 | 3.2 | 0.00 | 0.00 | 0.00 | 61 | 993.3 |
| 20260508014558 | 19 | 124 | 0.0 | 1.6 | 0.00 | 0.00 | 0.00 | 60 | 993.3 |
| 20260508013106 | 20 | 191 | 0.0 | 4.8 | 0.00 | 0.00 | 0.00 | 59 | 993.3 |
| 20260508011557 | 20 | 188 | 0.0 | 6.4 | 0.00 | 0.00 | 0.00 | 58 | 993.3 |
| 20260508010056 | 20 | 138 | 3.2 | 9.7 | 0.00 | 0.00 | 0.00 | 58 | 993.5 |
| 20260508004600 | 20 | 158 | 3.2 | 11.3 | 0.00 | 0.00 | 0.00 | 57 | 993.2 |
| 20260508003055 | 20 | 223 | 0.0 | 9.7 | 0.00 | 0.00 | 0.00 | 57 | 993.2 |
| 20260508001553 | 21 | 214 | 3.2 | 8.0 | 0.00 | 0.00 | 0.00 | 56 | 993.3 |
| 20260508000053 | 21 | 86 | 1.6 | 11.3 | 0.00 | 0.00 | 0.00 | 55 | 993.6 |
| 20260507234653 | 21 | 94 | 1.6 | 11.3 | 0.00 | 0.00 | 0.00 | 54 | 993.6 |
| 20260507233050 | 21 | 197 | 3.2 | 11.3 | 0.00 | 0.00 | 0.00 | 54 | 993.5 |
| 20260507231548 | 22 | 162 | 3.2 | 9.7 | 0.00 | 0.00 | 0.00 | 53 | 993.4 |
| 20260507230051 | 23 | 138 | 4.8 | 9.7 | 0.00 | 0.00 | 0.00 | 48 | 993.6 |
| 20260507224547 | 22 | 42 | 0.0 | 1.6 | 0.00 | 0.00 | 0.00 | 48 | 993.5 |
| 20260507223043 | 22 | 17 | 0.0 | 3.2 | 0.00 | 0.00 | 0.00 | 48 | 993.6 |
| 20260507221542 | 22 | 41 | 1.6 | 6.4 | 0.00 | 0.00 | 0.00 | 46 | 993.8 |
| 20260507220042 | 22 | 28 | 0.0 | 4.8 | 0.00 | 0.00 | 0.00 | 45 | 993.8 |
| 20260507214537 | 22 | 111 | 0.0 | 4.8 | 0.00 | 0.00 | 0.00 | 46 | 994.0 |
| 20260507213039 | 23 | 87 | 0.0 | 4.8 | 0.00 | 0.00 | 0.00 | 44 | 994.2 |
| 20260507211534 | 22 | 316 | 1.6 | 8.0 | 0.00 | 0.00 | 0.00 | 43 | 994.4 |
| 20260507210031 | 22 | 55 | 0.0 | 8.0 | 0.00 | 0.00 | 0.00 | 45 | 994.5 |
| 20260507204529 | 23 | 59 | 3.2 | 11.3 | 0.00 | 0.00 | 0.00 | 43 | 994.6 |
| 20260507203028 | 23 | 106 | 1.6 | 8.0 | 0.00 | 0.00 | 0.00 | 43 | 994.6 |
| 20260507201531 | 23 | 70 | 3.2 | 11.3 | 0.00 | 0.00 | 0.00 | 43 | 994.9 |
| 20260507200023 | 23 | 319 | 4.8 | 9.7 | 0.00 | 0.00 | 0.00 | 44 | 995.2 |
| 20260507194522 | 22 | 112 | 3.2 | 11.3 | 0.00 | 0.00 | 0.00 | 45 | 995.3 |
| 20260507193025 | 22 | 1 | 4.8 | 12.9 | 0.00 | 0.00 | 0.00 | 46 | 995.6 |
| 20260507191514 | 22 | 102 | 4.8 | 14.5 | 0.00 | 0.00 | 0.00 | 46 | 995.9 |
| 20260507190015 | 22 | 275 | 3.2 | 11.3 | 0.00 | 0.00 | 0.00 | 47 | 996.0 |
| 20260507184511 | 22 | 62 | 4.8 | 9.7 | 0.00 | 0.00 | 0.00 | 47 | 996.0 |
| 20260507183013 | 21 | 7 | 4.8 | 14.5 | 0.00 | 0.00 | 0.00 | 47 | 996.3 |
| 20260507181506 | 21 | 1 | 4.8 | 16.1 | 0.00 | 0.00 | 0.00 | 48 | 996.4 |
| 20260507180004 | 20 | 31 | 3.2 | 12.9 | 0.00 | 0.00 | 0.00 | 49 | 996.8 |
| 20260507174501 | 20 | 18 | 4.8 | 12.9 | 0.00 | 0.00 | 0.00 | 50 | 996.9 |
| 20260507173100 | 20 | 359 | 3.2 | 14.5 | 0.00 | 0.00 | 0.00 | 50 | 997.4 |
| 20260507171557 | 20 | 111 | 4.8 | 9.7 | 0.00 | 0.00 | 0.00 | 50 | 997.8 |
| 20260507170055 | 19 | 131 | 1.6 | 9.7 | 0.00 | 0.00 | 0.00 | 54 | 998.3 |
| 20260507164612 | 18 | 63 | 1.6 | 6.4 | 0.00 | 0.00 | 0.00 | 57 | 998.5 |
| 20260507163050 | 18 | 100 | 1.6 | 11.3 | 0.00 | 0.00 | 0.00 | 59 | 998.5 |
| 20260507161552 | 18 | 284 | 3.2 | 8.0 | 0.00 | 0.00 | 0.00 | 57 | 998.4 |
| 20260507160048 | 18 | 108 | 3.2 | 11.3 | 0.00 | 0.00 | 0.00 | 60 | 998.5 |
| 20260507154545 | 17 | 360 | 3.2 | 11.3 | 0.00 | 0.18 | 0.00 | 61 | 998.6 |
| 20260507153043 | 17 | 53 | 3.2 | 12.9 | 0.00 | 0.18 | 0.00 | 60 | 998.7 |
| 20260507151540 | 17 | 1 | 4.8 | 12.9 | 0.00 | 0.18 | 0.00 | 64 | 998.9 |
| 20260507150038 | 16 | 278 | 3.2 | 9.7 | 0.00 | 0.18 | 0.00 | 67 | 999.0 |
| 20260507144534 | 16 | 52 | 1.6 | 8.0 | 0.00 | 0.18 | 0.00 | 69 | 999.1 |
| 20260507143054 | 16 | 93 | 1.6 | 6.4 | 0.00 | 0.18 | 0.00 | 71 | 999.2 |
| 20260507141538 | 15 | 77 | 3.2 | 8.0 | 0.00 | 0.18 | 0.00 | 74 | 999.3 |
| 20260507140026 | 14 | 11 | 1.6 | 6.4 | 0.00 | 0.18 | 0.00 | 76 | 999.4 |
| 20260507134523 | 13 | 274 | 1.6 | 6.4 | 0.00 | 0.18 | 0.00 | 78 | 999.5 |
| 20260507133021 | 13 | 6 | 0.0 | 4.8 | 0.00 | 0.18 | 0.00 | 80 | 999.7 |
| 20260507131520 | 12 | 325 | 1.6 | 4.8 | 0.00 | 0.18 | 0.00 | 81 | 999.5 |
| 20260507130031 | 12 | 316 | 0.0 | 3.2 | 0.00 | 0.18 | 0.00 | 83 | 999.5 |
| 20260507124515 | 12 | 322 | 0.0 | 3.2 | 0.00 | 0.18 | 0.00 | 84 | 999.2 |
| 20260507123014 | 11 | 283 | 0.0 | 3.2 | 0.00 | 0.18 | 0.00 | 86 | 999.2 |
| 20260507121512 | 11 | 257 | 0.0 | 3.2 | 0.00 | 0.18 | 0.00 | 86 | 999.2 |
| 20260507120009 | 11 | 257 | 0.0 | 1.6 | 0.00 | 0.18 | 0.00 | 86 | 998.7 |
| 20260507114506 | 11 | 257 | 0.0 | 1.6 | 0.00 | 0.18 | 0.00 | 85 | 998.6 |
| 20260507113005 | 11 | 240 | 0.0 | 3.2 | 0.00 | 0.18 | 0.00 | 86 | 998.5 |
| 20260507111503 | 11 | 313 | 0.0 | 4.8 | 0.00 | 0.18 | 0.00 | 86 | 998.6 |
| 20260507110001 | 11 | 305 | 1.6 | 4.8 | 0.00 | 0.18 | 0.00 | 86 | 998.4 |
| 20260507104604 | 11 | 322 | 0.0 | 3.2 | 0.00 | 0.18 | 0.00 | 86 | 998.2 |
| 20260507103056 | 11 | 15 | 0.0 | 3.2 | 0.00 | 0.18 | 0.00 | 86 | 998.0 |
| 20260507101556 | 11 | 15 | 0.0 | 0.0 | 0.00 | 0.18 | 0.00 | 86 | 997.6 |
| 20260507100058 | 12 | 15 | 0.0 | 0.0 | 0.00 | 0.18 | 0.00 | 85 | 997.5 |
| 20260507094550 | 12 | 15 | 0.0 | 0.0 | 0.00 | 0.18 | 0.00 | 84 | 997.1 |
| 20260507093048 | 12 | 15 | 0.0 | 1.6 | 0.00 | 0.18 | 0.00 | 84 | 997.0 |
| 20260507091545 | 12 | 15 | 0.0 | 1.6 | 0.00 | 0.18 | 0.00 | 83 | 996.9 |
| 20260507090055 | 13 | 15 | 0.0 | 3.2 | 0.00 | 0.18 | 0.00 | 82 | 996.8 |
| 20260507084550 | 13 | 57 | 0.0 | 1.6 | 0.00 | 0.18 | 0.00 | 82 | 996.9 |
| 20260507083040 | 13 | 8 | 0.0 | 3.2 | 0.00 | 0.18 | 0.00 | 81 | 996.9 |